Weather reports worldwide

Advertisment
Garmisch-Partenkirchen, Germany (10963): temperature & dewpoint: 16.02.2019 22:00:00 - 22.02.2019 22:00:00 (CET)Garmisch-Partenkirchen, Germany (10963): temperature 5cm & temperature -5cm: 16.02.2019 22:00:00 - 22.02.2019 22:00:00 (CET)Garmisch-Partenkirchen, Germany (10963): temperature -20cm & temperature -100cm: 16.02.2019 22:00:00 - 22.02.2019 22:00:00 (CET)Garmisch-Partenkirchen, Germany (10963): wind speed & gusts: 16.02.2019 22:00:00 - 22.02.2019 22:00:00 (CET)Garmisch-Partenkirchen, Germany (10963): wind direction: 16.02.2019 22:00:00 - 22.02.2019 22:00:00 (CET)Garmisch-Partenkirchen, Germany (10963): reduced air pressure: 16.02.2019 22:00:00 - 22.02.2019 22:00:00 (CET)Garmisch-Partenkirchen, Germany (10963): visibility: 16.02.2019 22:00:00 - 22.02.2019 22:00:00 (CET)Garmisch-Partenkirchen, Germany (10963): sunshine duration: 16.02.2019 22:00:00 - 22.02.2019 22:00:00 (CET)Garmisch-Partenkirchen, Germany (10963): precipitation: 16.02.2019 22:00:00 - 22.02.2019 22:00:00 (CET)
Date & Time tt [°C] td [°C] tt 5cm [°C] tt -5cm [°C] tt -20cm [°C] tt -100cm [°C] ff [km/h] ff [kn] fx [km/h] fx [kn] dd ppp [hPa] vv [km] sd [min] rr [mm]
22.02.2019 22:00:00 2,4 2,1 1,0 0,2 0,5 3,1 0 0 6 3 N 1038,5 4,7 0 0,0
22.02.2019 21:00:00 2,7 2,4 1,9 0,2 0,5 3,1 3 2 9 5 W 1038,5 6 0 0,7
22.02.2019 20:00:00 2,4 2,1 1,6 0,2 0,5 3,1 4 2 6 3 SSW 1037,9 4,6 0 0,0
22.02.2019 19:00:00 2,6 2,2 1,7 0,2 0,5 3,1 2 1 9 5 W 1037,8 8 0 0,0
22.02.2019 18:00:00 3,4 3,0 1,9 0,2 0,5 3,1 3 1 5 3 WNW 1037,2 7 0 0,0
22.02.2019 17:00:00 4,3 3,8 3,1 0,2 0,5 3,1 2 1 8 4 NE 1036,4 10 0 0,0
22.02.2019 16:00:00 4,4 3,6 2,9 0,2 0,5 3,1 4 2 8 4 SW 1035,9 8 0 0,0
22.02.2019 15:00:00 4,8 3,8 3,6 0,2 0,5 3,1 2 1 11 6 SSW 1035,5 8 0 0,2
22.02.2019 14:00:00 4,6 3,3 3,5 0,2 0,5 3,1 5 3 15 8 ESE 1035,4 10 0 1,1
22.02.2019 13:00:00 4,6 4,0 2,9 0,2 0,5 3,1 3 2 7 4 SW 1034,9 4,5 0 1,1
22.02.2019 12:00:00 4,3 3,9 2,8 0,2 0,5 3,1 4 2 6 4 S 1034,7 3,6 0 0,7
22.02.2019 11:00:00 4,3 3,7 3,0 0,2 0,5 3,1 2 1 10 6 S 1034,1 2,5 0 0,3
22.02.2019 10:00:00 4,2 3,7 3,4 0,2 0,5 3,1 2 1 8 4 SE 1033,8 5 0 0,5
22.02.2019 09:00:00 3,3 3,0 2,6 0,2 0,5 3,1 6 4 14 8 SSE 1033,5 6 0 0,2
22.02.2019 08:00:00 3,1 2,9 2,1 0,2 0,5 3,1 3 2 10 5 W 1033,2 6 0 0,1
22.02.2019 07:00:00 2,6 2,2 1,7 0,2 0,5 3,1 4 2 12 6 E 1032,7 8 0 0,2
22.02.2019 06:00:00 2,4 1,7 1,6 0,2 0,5 3,1 3 1 10 5 WNW 1032,8 9 0 0,0
22.02.2019 05:00:00 2,2 1,7 1,4 0,2 0,5 3,1 3 2 7 4 NNE 1032,6 18 0 0,2
22.02.2019 04:00:00 2,3 1,4 1,2 0,2 0,5 3,1 2 1 11 6 SW 1032,6 9 0 0,1
22.02.2019 03:00:00 2,2 0,6 1,4 0,2 0,5 3,1 3 2 8 4 WSW 1032,8 31 0 0,0
22.02.2019 02:00:00 2,4 0,4 1,4 0,2 0,5 3,1 3 2 8 4 WSW 1032,7 36 0 0,0
22.02.2019 01:00:00 2,3 0,3 1,3 0,2 0,5 3,1 3 1 5 3 SW 1032,4 41 0 0,0
22.02.2019 00:00:00 2,4 0,2 1,3 0,2 0,5 3,2 4 2 7 4 SSW 1032,2 46 0 0,0
21.02.2019 23:00:00 2,5 0,1 1,6 0,2 0,5 3,2 2 1 4 2 WSW 1032,2 37 0 0,0
21.02.2019 22:00:00 2,6 0,2 1,4 0,2 0,5 3,2 2 1 8 4 WNW 1032,1 36 0 0,0
21.02.2019 21:00:00 2,9 0,3 1,5 0,2 0,5 3,2 2 1 7 4 WNW 1031,5 35 0 0,0
21.02.2019 20:00:00 2,7 0,2 1,6 0,2 0,5 3,2 4 2 8 4 SW 1031,6 36 0 0,0
21.02.2019 19:00:00 3,4 0,6 1,3 0,2 0,5 3,2 3 1 8 4 W 1031,0 42 0 0,0
21.02.2019 18:00:00 5,3 0,6 2,8 0,2 0,5 3,2 2 1 8 4 SSE 1029,4 46 9 0,0
21.02.2019 17:00:00 7,9 1,1 5,0 0,2 0,6 3,2 3 2 6 3 SW 1028,4 50 9 0,0
21.02.2019 16:00:00 10,1 0,2 7,3 0,2 0,6 3,2 3 2 18 10 S 1027,6 48 8 0,0
21.02.2019 15:00:00 12,8 -0,6 13,2 0,2 0,6 3,2 11 6 20 11 NE 1026,7 54 60 0,0
21.02.2019 14:00:00 11,2 -0,1 10,1 0,2 0,6 3,2 9 5 19 10 E 1027,4 51 57 0,0
21.02.2019 13:00:00 10,3 -0,3 9,0 0,2 0,6 3,2 9 5 18 10 E 1028,0 45 53 0,0
21.02.2019 12:00:00 10,1 -2,0 10,6 0,2 0,6 3,2 4 2 8 4 E 1028,6 52 60 0,0
21.02.2019 11:00:00 8,6 -1,8 7,1 0,2 0,6 3,2 4 2 11 6 S 1029,4 51 60 0,0
21.02.2019 10:00:00 5,3 -0,8 4,3 0,2 0,6 3,2 4 2 10 5 SSW 1030,4 56 60 0,0
21.02.2019 09:00:00 1,0 -1,7 -1,1 0,2 0,6 3,2 4 2 10 5 S 1032,2 45 35 0,0
21.02.2019 08:00:00 -1,4 -2,0 -3,6 0,3 0,6 3,2 5 3 7 4 SSW 1032,7 25 0 0,0
21.02.2019 07:00:00 -1,1 -1,6 -3,3 0,3 0,6 3,2 3 1 7 4 WSW 1032,0 24 0 0,0
21.02.2019 06:00:00 -0,4 -1,2 -1,7 0,2 0,6 3,2 5 3 9 5 SSW 1031,3 31 0 0,0
21.02.2019 05:00:00 0,6 -0,6 -0,7 0,2 0,6 3,2 4 2 7 4 WSW 1030,9 34 0 0,0
21.02.2019 04:00:00 0,4 -0,6 -0,7 0,2 0,6 3,2 3 2 6 4 WSW 1030,9 30 0 0,0
21.02.2019 03:00:00 0,2 -0,8 -1,0 0,3 0,6 3,2 2 1 6 3 NW 1030,9 30 0 0,0
21.02.2019 02:00:00 0,1 -0,8 -1,3 0,3 0,6 3,2 3 2 8 5 SW 1030,9 25 0 0,0
21.02.2019 01:00:00 -0,3 -1,2 -1,8 0,3 0,6 3,2 2 1 8 4 SW 1030,9 20 0 0,0
21.02.2019 00:00:00 0,4 -0,5 -1,4 0,3 0,6 3,2 4 2 7 4 SSW 1030,1 16 0 0,0
20.02.2019 23:00:00 1,4 0,0 -0,3 0,3 0,6 3,2 3 1 8 4 S 1029,8 18 0 0,0
20.02.2019 22:00:00 1,7 0,2 0,5 0,3 0,6 3,2 4 2 6 3 SSW 1029,5 23 0 0,0
20.02.2019 21:00:00 1,9 0,5 0,7 0,3 0,6 3,2 3 2 5 3 WSW 1029,0 23 0 0,0
20.02.2019 20:00:00 2,2 0,4 1,0 0,3 0,6 3,2 3 2 5 3 SW 1028,5 21 0 0,0
20.02.2019 19:00:00 2,8 0,4 1,1 0,3 0,6 3,2 3 2 6 3 SW 1027,7 24 0 0,0
20.02.2019 18:00:00 4,0 0,8 1,7 0,3 0,6 3,2 3 2 5 3 W 1026,7 26 0 0,0
20.02.2019 17:00:00 7,0 1,4 4,1 0,3 0,6 3,2 1 1 13 7 ESE 1025,3 38 11 0,0
20.02.2019 16:00:00 8,7 1,5 7,1 0,3 0,6 3,2 6 3 14 8 ENE 1024,8 37 2 0,0
20.02.2019 15:00:00 8,9 1,1 7,5 0,3 0,6 3,2 8 5 20 11 ENE 1024,4 36 12 0,0
20.02.2019 14:00:00 8,8 0,7 7,6 0,3 0,6 3,2 7 4 18 10 ENE 1024,3 34 48 0,0
20.02.2019 13:00:00 9,5 -0,5 9,7 0,3 0,6 3,2 5 3 11 6 E 1024,2 40 60 0,0
20.02.2019 12:00:00 8,4 -1,7 9,0 0,3 0,6 3,2 7 4 10 6 E 1025,0 67 56 0,0
20.02.2019 11:00:00 6,8 -0,9 6,0 0,3 0,6 3,2 4 2 9 5 S 1025,3 75 31 0,0
20.02.2019 10:00:00 3,9 -0,8 3,7 0,3 0,6 3,2 5 3 7 4 S 1026,2 57 57 0,0
20.02.2019 09:00:00 0,7 -1,6 -1,6 0,3 0,6 3,2 4 2 8 5 SSW 1027,3 35 22 0,0
20.02.2019 08:00:00 -1,4 -2,3 -3,5 0,3 0,6 3,2 3 2 8 4 S 1027,4 44 0 0,0
20.02.2019 07:00:00 -1,5 -2,4 -3,9 0,3 0,6 3,2 3 2 6 3 SW 1026,9 40 0 0,0
20.02.2019 06:00:00 -0,6 -1,8 -2,8 0,3 0,6 3,2 4 2 8 4 WSW 1026,3 46 0 0,0
20.02.2019 05:00:00 0,0 -1,2 -2,1 0,3 0,6 3,2 3 2 7 4 S 1025,6 43 0 0,0
20.02.2019 04:00:00 0,3 -1,0 -1,4 0,3 0,6 3,2 2 1 7 4 WSW 1025,5 41 0 0,0
20.02.2019 03:00:00 0,6 -0,7 -0,7 0,3 0,6 3,2 4 2 6 3 SSW 1025,5 41 0 0,0
20.02.2019 02:00:00 1,2 -0,7 0,2 0,3 0,6 3,2 4 2 7 4 W 1025,6 49 0 0,0
20.02.2019 01:00:00 1,4 -0,7 0,2 0,3 0,6 3,2 0 0 8 4 N 1025,0 45 0 0,0
20.02.2019 00:00:00 1,3 -0,7 -0,4 0,3 0,6 3,2 4 2 8 4 WSW 1025,2 33 0 0,0
19.02.2019 23:00:00 2,1 -0,3 0,5 0,3 0,6 3,2 3 2 11 6 NNW 1024,9 37 0 0,0
19.02.2019 22:00:00 1,9 0,0 0,7 0,3 0,6 3,2 5 3 9 5 SSW 1025,0 32 0 0,0
19.02.2019 21:00:00 2,4 -0,4 1,3 0,3 0,6 3,2 3 2 7 4 WSW 1024,4 30 0 0,0
19.02.2019 20:00:00 2,5 -0,4 1,1 0,3 0,6 3,2 4 2 9 5 SSW 1023,7 33 0 0,0
19.02.2019 19:00:00 2,5 -0,6 0,5 0,3 0,6 3,2 4 2 10 5 WSW 1023,6 39 0 0,0
19.02.2019 18:00:00 4,5 -0,1 1,7 0,3 0,6 3,2 3 1 8 4 W 1022,3 53 16 0,0
19.02.2019 17:00:00 7,0 -0,5 4,1 0,3 0,6 3,2 4 2 11 6 SW 1021,0 49 58 0,0
19.02.2019 16:00:00 10,3 -0,9 7,6 0,3 0,6 3,2 6 4 21 11 E 1019,9 51 49 0,0
19.02.2019 15:00:00 12,7 -2,7 13,0 0,3 0,6 3,2 8 5 16 9 NE 1019,4 63 47 0,0
19.02.2019 14:00:00 12,4 -3,7 11,1 0,3 0,6 3,2 6 4 13 7 ESE 1019,8 75 60 0,0
19.02.2019 13:00:00 12,3 -5,0 10,9 0,3 0,6 3,2 4 2 8 4 SE 1020,2 70 60 0,0
19.02.2019 12:00:00 9,8 -4,7 8,9 0,3 0,6 3,2 3 2 8 4 E 1021,7 70 60 0,0
19.02.2019 11:00:00 7,1 -5,6 7,1 0,3 0,6 3,2 3 1 7 4 E 1022,6 61 60 0,0
19.02.2019 10:00:00 4,7 -4,6 3,2 0,3 0,6 3,2 3 1 11 6 E 1023,7 62 60 0,0
19.02.2019 09:00:00 -2,1 -5,6 -3,8 0,3 0,6 3,2 6 4 15 8 SSW 1026,1 68 23 0,0
19.02.2019 08:00:00 -4,3 -6,2 -7,6 0,3 0,6 3,2 6 3 14 7 SW 1026,9 74 0 0,0
19.02.2019 07:00:00 -4,6 -6,0 -7,5 0,3 0,6 3,2 5 3 10 5 S 1026,7 75 0 0,0
19.02.2019 06:00:00 -4,8 -5,9 -7,8 0,3 0,6 3,2 3 2 9 5 SW 1026,4 75 0 0,0
19.02.2019 05:00:00 -4,6 -6,3 -7,8 0,3 0,6 3,2 5 3 11 6 SSW 1026,0 71 0 0,0
19.02.2019 04:00:00 -4,4 -5,8 -8,3 0,3 0,6 3,2 5 3 9 5 SW 1025,5 65 0 0,0
19.02.2019 03:00:00 -4,3 -5,7 -7,0 0,3 0,6 3,2 4 2 7 4 SW 1025,2 75 0 0,0
19.02.2019 02:00:00 -3,8 -5,0 -7,3 0,3 0,6 3,2 3 2 7 4 WSW 1024,8 61 0 0,0
19.02.2019 01:00:00 -3,5 -5,0 -6,5 0,3 0,6 3,2 5 3 8 4 SW 1024,6 48 0 0,0
19.02.2019 00:00:00 -2,9 -4,6 -6,7 0,3 0,6 3,2 2 1 8 4 W 1023,9 54 0 0,0
18.02.2019 23:00:00 -2,7 -4,4 -6,1 0,3 0,6 3,2 4 2 7 4 WSW 1023,9 52 0 0,0
18.02.2019 22:00:00 -2,0 -4,1 -4,8 0,3 0,6 3,2 4 2 7 4 WSW 1023,7 42 0 0,0
18.02.2019 21:00:00 -1,4 -3,9 -4,8 0,3 0,6 3,2 5 3 8 4 WSW 1023,4 36 0 0,0
18.02.2019 20:00:00 -0,6 -3,8 -3,4 0,3 0,6 3,2 3 2 9 5 SSW 1022,9 37 0 0,0
18.02.2019 19:00:00 0,8 -3,3 -2,5 0,3 0,6 3,2 5 3 10 5 SW 1022,4 30 0 0,0
18.02.2019 18:00:00 2,4 -2,3 -0,6 0,3 0,6 3,2 3 1 6 4 SSW 1021,7 41 16 0,0
18.02.2019 17:00:00 7,2 -3,0 3,4 0,3 0,6 3,2 3 1 6 4 WSW 1019,8 43 60 0,0
18.02.2019 16:00:00 9,4 -3,4 5,8 0,3 0,6 3,2 3 2 9 5 SSE 1019,5 58 60 0,0
18.02.2019 15:00:00 13,3 -7,0 10,4 0,3 0,6 3,2 6 3 10 6 E 1018,2 75 60 0,0
18.02.2019 14:00:00 12,6 -7,0 11,8 0,3 0,6 3,2 6 4 11 6 E 1019,1 49 60 0,0
18.02.2019 13:00:00 12,4 -7,5 9,1 0,3 0,6 3,2 4 2 10 5 S 1020,1 63 60 0,0
18.02.2019 12:00:00 10,7 -6,5 9,7 0,3 0,6 3,2 5 3 8 5 E 1021,4 57 60 0,0
18.02.2019 11:00:00 7,2 -3,6 5,8 0,3 0,6 3,2 3 2 9 5 S 1022,9 45 60 0,0
18.02.2019 10:00:00 2,8 -5,5 0,3 0,3 0,6 3,2 3 2 6 3 S 1025,1 72 60 0,0
18.02.2019 09:00:00 -3,0 -6,3 -5,4 0,3 0,6 3,2 4 2 8 4 SW 1027,8 48 22 0,0
18.02.2019 08:00:00 -5,6 -6,8 -7,7 0,3 0,6 3,2 3 1 6 3 W 1028,8 75 0 0,0
18.02.2019 07:00:00 -5,5 -7,2 -7,3 0,3 0,6 3,2 5 3 8 5 SSW 1028,8 75 0 0,0
18.02.2019 06:00:00 -5,6 -6,9 -7,4 0,3 0,6 3,2 3 1 6 4 WSW 1028,8 75 0 0,0
18.02.2019 05:00:00 -5,1 -6,5 -7,6 0,3 0,6 3,2 3 2 8 4 SW 1028,8 75 0 0,0
18.02.2019 04:00:00 -5,2 -6,5 -7,2 0,3 0,6 3,2 3 2 7 4 SW 1029,0 71 0 0,0
18.02.2019 03:00:00 -4,9 -6,5 -6,6 0,3 0,6 3,2 4 2 9 5 WSW 1029,5 57 0 0,0
18.02.2019 02:00:00 -4,6 -5,8 -6,9 0,3 0,6 3,2 4 2 6 3 WSW 1030,1 61 0 0,0
18.02.2019 01:00:00 -4,0 -5,8 -5,6 0,3 0,6 3,2 4 2 9 5 SW 1030,2 52 0 0,0
18.02.2019 00:00:00 -3,9 -5,9 -5,8 0,3 0,6 3,2 4 2 8 4 SW 1030,1 56 0 0,0
17.02.2019 23:00:00 -3,2 -5,5 -4,8 0,3 0,6 3,2 5 3 9 5 SW 1030,0 45 0 0,0
17.02.2019 22:00:00 -2,7 -5,2 -4,8 0,3 0,6 3,2 4 2 8 4 SSW 1029,9 42 0 0,0
17.02.2019 21:00:00 -2,4 -4,6 -4,3 0,3 0,6 3,2 4 2 8 4 WSW 1029,8 36 0 0,0
17.02.2019 20:00:00 -1,1 -4,3 -2,9 0,3 0,6 3,2 6 3 10 5 SSW 1029,1 28 0 0,0
17.02.2019 19:00:00 0,3 -3,7 -1,8 0,3 0,6 3,2 4 2 9 5 SW 1028,5 30 0 0,0
17.02.2019 18:00:00 2,4 -3,4 -0,2 0,3 0,6 3,2 3 2 11 6 SW 1027,2 53 15 0,0
17.02.2019 17:00:00 6,8 -2,6 4,5 0,3 0,6 3,2 3 2 8 5 WSW 1025,4 68 60 0,0
17.02.2019 16:00:00 9,2 -3,7 6,4 0,3 0,6 3,2 4 2 6 3 SW 1024,9 64 60 0,0
17.02.2019 15:00:00 11,1 -3,5 8,1 0,3 0,6 3,2 3 2 4 2 SSW 1024,5 71 60 0,0
17.02.2019 14:00:00 13,6 -3,8 10,5 0,2 0,6 3,2 3 1 6 4 SE 1024,2 51 60 0,0
17.02.2019 13:00:00 13,2 -3,0 10,2 0,2 0,6 3,2 3 1 6 3 SE 1025,1 75 60 0,0
17.02.2019 12:00:00 9,6 -2,6 7,5 0,2 0,6 3,2 2 1 8 4 S 1027,3 74 60 0,0
17.02.2019 11:00:00 7,5 -6,1 5,3 0,3 0,6 3,2 5 3 9 5 S 1028,5 72 60 0,0
17.02.2019 10:00:00 2,6 -5,8 -0,9 0,3 0,6 3,2 3 2 7 4 SW 1030,5 75 60 0,0
17.02.2019 09:00:00 -3,7 -7,4 -6,0 0,3 0,6 3,2 5 3 9 5 SSW 1033,1 51 20 0,0
17.02.2019 08:00:00 -5,9 -6,9 -7,5 0,3 0,6 3,2 4 2 6 4 WSW 1033,9 69 0 0,0
17.02.2019 07:00:00 -5,9 -7,1 -7,4 0,3 0,6 3,2 3 2 7 4 SW 1033,6 75 0 0,0
17.02.2019 06:00:00 -5,5 -6,8 -7,3 0,3 0,6 3,2 3 2 7 4 W 1033,4 75 0 0,0
17.02.2019 05:00:00 -5,5 -6,6 -7,7 0,3 0,6 3,2 4 2 6 3 WSW 1033,5 75 0 0,0
17.02.2019 04:00:00 -5,2 -6,5 -6,7 0,3 0,6 3,2 4 2 7 4 WSW 1033,6 75 0 0,0
17.02.2019 03:00:00 -5,2 -6,4 -6,9 0,3 0,6 3,2 4 2 6 3 SW 1033,8 75 0 0,0
17.02.2019 02:00:00 -4,7 -6,1 -6,1 0,3 0,6 3,2 3 2 6 3 WSW 1033,6 56 0 0,0
17.02.2019 01:00:00 -4,1 -5,7 -6,5 0,3 0,6 3,2 4 2 8 4 W 1033,7 56 0 0,0
17.02.2019 00:00:00 -3,7 -5,1 -5,3 0,3 0,6 3,2 4 2 7 4 SSW 1033,8 47 0 0,0
16.02.2019 23:00:00 -3,1 -4,6 -5,4 0,3 0,6 3,2 3 2 6 3 SW 1033,9 35 0 0,0
16.02.2019 22:00:00 -2,7 -4,8 -5,2 0,3 0,6 3,2 4 2 8 4 SW 1033,8 41 0 0,0

tt = temperature
td = dewpoint
tt 5cm = temperature 5cm
tt -5cm = temperature -5cm
tt -20cm = temperature -20cm
tt -100cm = temperature -100cm
ff = wind speed
fx = gusts
dd = wind direction
ppp = reduced air pressure
vv = visibility
sd = sunshine duration
rr = precipitation

Next stations